Weather History for Marrakech, Morocco

Change the Weather History Date:

Saturday, February 8, 2014

  Actual Average Record
Temperature  
Mean Temperature 58 °F -  
Max Temperature 68 °F 69 °F 80 °F (1997)
Min Temperature 48 °F 46 °F 39 °F (2009)
Degree Days  
Heating Degree Days 7    
Growing Degree Days 8 (Base 50)    
Moisture  
Dew Point 44 °F    
Average Humidity 58    
Maximum Humidity 100    
Minimum Humidity 36    
Precipitation  
Precipitation 0.00 in 0.05 in - ()
Sea Level Pressure  
Sea Level Pressure 30.19 in    
Wind  
Wind Speed 4 mph ()    
Max Wind Speed 9 mph    
Max Gust Speed -    
Visibility 4.6 miles    
Events      
Averages and records for this station are not official NWS values.
T = Trace of Precipitation, MM = Missing Value Source: Averaged Metar Reports

Daily Weather History Graph

Daily Weather History Graph

Search for Another Location

Airport:

Trip Planner

Search our weather history database for the weather conditions in past years. The results will help you decide how hot, cold, wet, or windy it might be!

Date:

Astronomy

Feb. 08, 2014 Rise Set
Actual Time 7:20 AM WET 6:12 PM WET
Civil Twilight 6:54 AM WET 6:38 PM WET
Nautical Twilight 6:26 AM WET 7:06 PM WET
Astronomical Twilight 5:57 AM WET 7:35 PM WET
Moon 1:02 PM WET (2/8) 2:15 AM WET (2/8)
Length of Visible Light 11h 43m
Length of Day
10h 52m
Waxing Gibbous, 66% of the Moon is Illuminated
Feb 8
Waxing Gibbous
Feb 14
Full
Feb 22
Last Quarter
Mar 1
New
Mar 8
First Quarter

Hourly Weather History & Observations

Time (WET) Temp. Dew Point Humidity Pressure Visibility Wind Dir Wind Speed Gust Speed Precip Events Conditions
12:00 AM 53 °F 48 °F 77% 30.26 in 4 mi Calm Calm - -  
12:00 AM 53.6 °F 48.2 °F 82% 30.24 in 4.3 mi Calm Calm - N/A   Unknown
3:00 AM 49 °F 48 °F 95% 30.25 in 4 mi SSW 6.9 mph - -  
3:00 AM 48.2 °F 48.2 °F 100% 30.21 in 4.3 mi SSW 5.8 mph - N/A   Unknown
3:00 PM 67 °F 49 °F 43% 30.12 in 6 mi WNW 5.8 mph - -   Clear
3:30 PM 68.0 °F 46.4 °F 46% 30.15 in 5.6 mi NW 4.6 mph - N/A   Unknown
4:00 PM 68.0 °F 44.6 °F 43% 30.15 in - WNW 6.9 mph - N/A   Clear
4:30 PM 68.0 °F 44.6 °F 43% 30.15 in - WNW 9.2 mph - N/A   Clear
5:00 PM 66.2 °F 42.8 °F 43% 30.18 in - West 8.1 mph - N/A   Clear
5:30 PM 66.2 °F 44.6 °F 46% 30.18 in - West 8.1 mph - N/A   Clear
6:00 PM 64 °F 44 °F 36% 30.16 in 6 mi West 8.1 mph - -   Clear
6:00 PM 64.4 °F 42.8 °F 45% 30.18 in - West 8.1 mph - N/A   Clear
6:30 PM 62.6 °F 42.8 °F 48% 30.18 in 5.6 mi WSW 5.8 mph - N/A   Unknown
7:00 PM 60.8 °F 44.6 °F 55% 30.18 in 4.3 mi SW 5.8 mph - N/A   Unknown
7:30 PM 59.0 °F 44.6 °F 59% 30.18 in 5.0 mi WNW 5.8 mph - N/A   Unknown
8:00 PM 59.0 °F 42.8 °F 55% 30.18 in 3.7 mi WNW 4.6 mph - N/A   Unknown
8:30 PM 57.2 °F 41.0 °F 55% 30.18 in 4.3 mi NW 3.5 mph - N/A   Unknown
9:00 PM 58 °F 41 °F 42% 30.19 in 4 mi SSE 2.3 mph - -   Clear
9:00 PM 57.2 °F 41.0 °F 55% 30.18 in 4.3 mi Variable 2.3 mph - N/A   Unknown
9:30 PM 53.6 °F 41.0 °F 62% 30.21 in 3.7 mi SW 1.2 mph - N/A   Unknown
10:00 PM 51.8 °F 41.0 °F 67% 30.21 in 3.7 mi SW 3.5 mph - N/A   Unknown
10:30 PM 53.6 °F 41.0 °F 62% 30.21 in 4.3 mi SW 4.6 mph - N/A   Unknown
11:00 PM 51.8 °F 41.0 °F 67% 30.21 in 5.0 mi WSW 5.8 mph - N/A   Unknown
11:30 PM 50.0 °F 41.0 °F 71% 30.21 in 5.6 mi SW 5.8 mph - N/A   Unknown